Weather History for Grand Forks AFB, ND

Change the Weather History Date:

Saturday, February 2, 2013

  Actual Average Record
Temperature  
Mean Temperature -2 °F -  
Max Temperature 8 °F 19 °F 46 °F (2000)
Min Temperature -13 °F 1 °F -18 °F (2004)
Degree Days  
Heating Degree Days 68    
Moisture  
Dew Point -6 °F    
Average Humidity 75    
Maximum Humidity 79    
Minimum Humidity 67    
Precipitation  
Precipitation 0.00 in - - ()
Sea Level Pressure  
Sea Level Pressure 30.07 in    
Wind  
Wind Speed 7 mph (SSW)    
Max Wind Speed 20 mph    
Max Gust Speed 23 mph    
Visibility 7 miles    
Events Snow    
Averages and records for this station are not official NWS values.
T = Trace of Precipitation, MM = Missing Value Source: NWS Daily Summary

Daily Weather History Graph

Daily Weather History Graph

Search for Another Location

Airport:

Trip Planner

Search our weather history database for the weather conditions in past years. The results will help you decide how hot, cold, wet, or windy it might be!

Date:

Astronomy

Feb. 02, 2013 Rise Set
Actual Time 7:55 AM CST 5:31 PM CST
Civil Twilight 7:22 AM CST 6:05 PM CST
Nautical Twilight 6:45 AM CST 6:42 PM CST
Astronomical Twilight 6:08 AM CST 7:18 PM CST
Moon 12:12 AM CST (2/2) 10:31 AM CST (2/2)
Length of Visible Light 10h 42m
Length of Day
9h 36m
Waning Gibbous, 59% of the Moon is Illuminated
Feb 2
Waning Gibbous
Feb 3
Last Quarter
Feb 10
New
Feb 17
First Quarter
Feb 25
Full

Hourly Weather History & Observations

Time (CST) Temp. Windchill Dew Point Humidity Pressure Visibility Wind Dir Wind Speed Gust Speed Precip Events Conditions
12:50 AM -11.2 °F -24.8 °F -18.4 °F 70% 30.18 in 10.0 mi NNW 5.8 mph - N/A   Partly Cloudy
12:55 AM -12.1 °F -25.9 °F -17.7 °F 76% 30.18 in 10.0 mi North 5.8 mph - N/A   Partly Cloudy
1:00 AM -11.2 °F -23.0 °F -18.4 °F 70% 30.18 in 10.0 mi NNW 4.6 mph - N/A   Mostly Cloudy
1:05 AM -11.2 °F -20.6 °F -18.4 °F 70% 30.18 in 10.0 mi NNW 3.5 mph - N/A   Mostly Cloudy
1:08 AM -11.2 °F -20.6 °F -16.6 °F 77% 30.18 in 10.0 mi NNW 3.5 mph - N/A   Mostly Cloudy
1:16 AM -13.0 °F -25.1 °F -18.4 °F 77% 30.18 in 10.0 mi NNW 4.6 mph - N/A   Overcast
1:20 AM -13.0 °F -25.1 °F -18.4 °F 77% 30.18 in 10.0 mi NNW 4.6 mph - N/A   Overcast
1:45 AM -11.2 °F -24.8 °F -16.6 °F 77% 30.18 in 10.0 mi NNW 5.8 mph - N/A   Overcast
1:55 AM -11.2 °F -23.0 °F -16.6 °F 77% 30.18 in 10.0 mi NNW 4.6 mph - N/A   Overcast
2:00 AM -11.2 °F -24.8 °F -16.6 °F 77% 30.19 in 10.0 mi North 5.8 mph - N/A   Mostly Cloudy
2:22 AM -11.2 °F -26.4 °F -16.6 °F 77% 30.19 in 10.0 mi North 6.9 mph - N/A   Overcast
2:35 AM -11.2 °F -23.0 °F -16.6 °F 77% 30.20 in 10.0 mi NNW 4.6 mph - N/A   Scattered Clouds
2:55 AM -11.2 °F -23.0 °F -16.8 °F 76% 30.21 in 10.0 mi North 4.6 mph - N/A   Clear
3:55 AM -12.3 °F - -18.0 °F 76% 30.21 in 10.0 mi Calm Calm - N/A   Clear
4:55 AM -12.5 °F - -18.2 °F 76% 30.19 in 10.0 mi Calm Calm - N/A   Clear
5:55 AM -12.5 °F - -18.4 °F 75% 30.18 in 10.0 mi Calm Calm - N/A   Partly Cloudy
6:55 AM -10.7 °F - -16.2 °F 76% 30.17 in 10.0 mi Calm Calm - N/A   Overcast
7:55 AM -8.1 °F - -13.5 °F 77% 30.17 in 10.0 mi Calm Calm - N/A   Overcast
8:55 AM -6.9 °F -21.2 °F -12.5 °F 77% 30.14 in 10.0 mi South 6.9 mph - N/A   Overcast
9:06 AM -5.8 °F -18.4 °F -11.2 °F 77% 30.14 in 10.0 mi SSW 5.8 mph - N/A Snow Light Snow
9:09 AM -5.8 °F -18.4 °F -11.2 °F 77% 30.14 in 10.0 mi SSW 5.8 mph - N/A Snow Light Snow
9:16 AM -5.8 °F -21.2 °F -11.2 °F 77% 30.13 in 7.0 mi South 8.1 mph - N/A Snow Light Snow
9:22 AM -5.8 °F -21.2 °F -11.2 °F 77% 30.13 in 7.0 mi South 8.1 mph - N/A   Overcast
9:30 AM -5.8 °F -21.2 °F -11.2 °F 77% 30.13 in 10.0 mi South 8.1 mph - N/A   Overcast
9:37 AM -5.8 °F -21.2 °F -11.2 °F 77% 30.13 in 10.0 mi SSW 8.1 mph - N/A   Overcast
9:45 AM -4.0 °F -21.2 °F -11.2 °F 71% 30.12 in 10.0 mi SSW 10.4 mph - N/A   Overcast
9:55 AM -4.4 °F -22.6 °F -10.3 °F 76% 30.11 in 10.0 mi SSW 11.5 mph - 0.00 in   Overcast
10:01 AM -4.0 °F -22.1 °F -9.4 °F 78% 30.11 in 10.0 mi SSW 11.5 mph - N/A   Overcast
10:03 AM -4.0 °F -22.1 °F -9.4 °F 78% 30.10 in 10.0 mi SSW 11.5 mph - N/A   Overcast
10:06 AM -4.0 °F -23.0 °F -9.4 °F 78% 30.09 in 10.0 mi South 12.7 mph - N/A   Overcast
10:12 AM -4.0 °F -22.1 °F -9.4 °F 78% 30.09 in 10.0 mi South 11.5 mph - N/A   Overcast
10:21 AM -2.2 °F -21.5 °F -9.4 °F 71% 30.09 in 10.0 mi South 13.8 mph - N/A   Overcast
10:23 AM -2.2 °F -20.7 °F -9.4 °F 71% 30.09 in 10.0 mi SSW 12.7 mph - N/A   Overcast
10:27 AM -2.2 °F -20.7 °F -9.4 °F 71% 30.09 in 10.0 mi SSW 12.7 mph - N/A   Overcast
10:55 AM -1.1 °F -18.5 °F -7.8 °F 73% 30.07 in 10.0 mi SSW 11.5 mph - N/A   Mostly Cloudy
11:02 AM -0.4 °F -18.4 °F -7.6 °F 72% 30.06 in 10.0 mi SSW 12.7 mph - N/A   Mostly Cloudy
11:11 AM -0.4 °F -19.2 °F -7.6 °F 72% 30.06 in 10.0 mi SSW 13.8 mph - N/A   Mostly Cloudy
11:27 AM 1.4 °F -16.1 °F -5.8 °F 72% 30.06 in 10.0 mi SSW 12.7 mph - N/A   Overcast
11:55 AM 0.9 °F -17.6 °F -5.6 °F 74% 30.05 in 10.0 mi SSW 13.8 mph - N/A   Overcast
12:05 PM 1.4 °F -16.9 °F -5.8 °F 72% 30.04 in 10.0 mi SSW 13.8 mph - N/A   Overcast
12:11 PM 1.4 °F -16.1 °F -5.8 °F 72% 30.03 in 8.0 mi SSW 12.7 mph - N/A Snow Light Snow
12:17 PM 1.4 °F -16.1 °F -5.8 °F 72% 30.03 in 2.5 mi South 12.7 mph - N/A Snow Light Snow
12:20 PM 1.4 °F -15.3 °F -4.0 °F 78% 30.03 in 1.8 mi SSW 11.5 mph - N/A Snow Light Snow
12:21 PM 1.4 °F -16.1 °F -4.0 °F 78% 30.03 in 1.5 mi South 12.7 mph - N/A Snow Light Snow
12:24 PM 1.4 °F -15.3 °F -4.0 °F 78% 30.02 in 1.2 mi SSW 11.5 mph - N/A Snow Light Snow
12:31 PM 1.4 °F -15.3 °F -4.0 °F 78% 30.02 in 1.5 mi SSW 11.5 mph - N/A Snow Light Snow
12:44 PM 1.4 °F -15.3 °F -4.0 °F 78% 30.03 in 2.0 mi South 11.5 mph - N/A Snow Light Snow
12:51 PM 1.4 °F -15.3 °F -4.0 °F 78% 30.02 in 1.8 mi South 11.5 mph - N/A Snow Light Snow
1:06 PM 3.2 °F -12.2 °F -4.0 °F 72% 30.01 in 1.5 mi South 10.4 mph - N/A Snow Light Snow
1:09 PM 3.2 °F -13.1 °F -4.0 °F 72% 30.01 in 1.2 mi South 11.5 mph - N/A Snow Light Snow
1:22 PM 3.2 °F -11.3 °F -2.2 °F 78% 30.01 in 1.5 mi South 9.2 mph - N/A Snow Light Snow
1:23 PM 3.2 °F -11.3 °F -2.2 °F 78% 30.01 in 1.5 mi South 9.2 mph - N/A Snow Light Snow
1:27 PM 3.2 °F -11.3 °F -2.2 °F 78% 30.00 in 2.0 mi South 9.2 mph - N/A Snow Light Snow
1:29 PM 3.2 °F -12.2 °F -2.2 °F 78% 30.00 in 2.5 mi South 10.4 mph - N/A Snow Light Snow
1:31 PM 3.2 °F -12.2 °F -2.2 °F 78% 30.00 in 3.0 mi South 10.4 mph - N/A Snow Light Snow
1:50 PM 3.2 °F -12.2 °F -4.0 °F 72% 30.00 in 5.0 mi South 10.4 mph - N/A Snow Light Snow
1:55 PM 3.0 °F -12.5 °F -3.1 °F 76% 30.00 in 4.0 mi South 10.4 mph - 0.00 in Snow Light Snow
1:58 PM 3.2 °F -12.2 °F -2.2 °F 78% 30.00 in 2.5 mi South 10.4 mph - N/A Snow Light Snow
2:00 PM 3.2 °F -10.3 °F -2.2 °F 78% 30.00 in 2.5 mi South 8.1 mph - N/A Snow Light Snow
2:07 PM 3.2 °F -12.2 °F -2.2 °F 78% 29.99 in 1.8 mi South 10.4 mph - N/A Snow Light Snow
2:09 PM 3.2 °F -11.3 °F -2.2 °F 78% 29.99 in 1.8 mi South 9.2 mph - N/A Snow Light Snow
2:11 PM 3.2 °F -12.2 °F -2.2 °F 78% 29.99 in 1.8 mi South 10.4 mph - N/A Snow Light Snow
2:20 PM 3.2 °F -11.3 °F -2.2 °F 78% 29.99 in 2.0 mi South 9.2 mph - N/A Snow Light Snow
2:26 PM 3.2 °F -11.3 °F -2.2 °F 78% 29.98 in 3.0 mi South 9.2 mph - N/A Snow Light Snow
2:49 PM 3.2 °F -12.2 °F -2.2 °F 78% 29.99 in 9.0 mi South 10.4 mph - N/A Snow Light Snow
2:51 PM 3.2 °F -12.2 °F -2.2 °F 78% 29.98 in 8.0 mi South 10.4 mph - N/A Snow Light Snow
2:59 PM 3.2 °F -11.3 °F -2.2 °F 78% 29.98 in 7.0 mi South 9.2 mph - N/A Snow Light Snow
3:12 PM 3.2 °F -9.1 °F -2.2 °F 78% 29.98 in 7.0 mi South 6.9 mph - N/A   Overcast
3:17 PM 5.0 °F -8.1 °F -2.2 °F 72% 29.99 in 7.0 mi South 8.1 mph - N/A Snow Light Snow
3:33 PM 5.0 °F -9.1 °F -2.2 °F 72% 29.98 in 6.0 mi SSE 9.2 mph - N/A Snow Light Snow
3:34 PM 5.0 °F -9.1 °F -2.2 °F 72% 29.99 in 6.0 mi SSE 9.2 mph - N/A   Haze
3:36 PM 5.0 °F -6.9 °F -2.2 °F 72% 29.99 in 6.0 mi South 6.9 mph - N/A Snow Light Snow
3:38 PM 5.0 °F -6.9 °F -2.2 °F 72% 29.99 in 6.0 mi South 6.9 mph - N/A Snow Light Snow
3:55 PM 4.3 °F -7.8 °F -2.2 °F 75% 29.99 in 5.0 mi South 6.9 mph - 0.00 in Snow Light Snow
4:00 PM 5.0 °F -6.9 °F -2.2 °F 72% 29.99 in 6.0 mi SSW 6.9 mph - N/A   Haze
4:05 PM 5.0 °F -8.1 °F -2.2 °F 72% 29.99 in 8.0 mi South 8.1 mph - N/A   Overcast
4:13 PM 5.0 °F -6.9 °F -2.2 °F 72% 29.99 in 7.0 mi South 6.9 mph - N/A   Overcast
4:15 PM 5.0 °F -6.9 °F -2.2 °F 72% 29.99 in 7.0 mi South 6.9 mph - N/A   Overcast
4:30 PM 5.0 °F -5.6 °F -2.2 °F 72% 30.01 in 7.0 mi SW 5.8 mph - N/A   Overcast
4:44 PM 5.0 °F - -2.2 °F 72% 30.02 in 9.0 mi Calm Calm - N/A   Overcast
4:47 PM 5.0 °F - -2.2 °F 72% 30.02 in 10.0 mi Calm Calm - N/A   Overcast
4:55 PM 4.8 °F - -1.7 °F 75% 30.02 in 10.0 mi Calm Calm - 0.00 in   Overcast
5:09 PM 5.0 °F - -2.2 °F 72% 30.03 in 8.0 mi Calm Calm - N/A Snow Light Snow
5:27 PM 5.0 °F -2.1 °F -0.4 °F 78% 30.03 in 5.0 mi SSW 3.5 mph - N/A Snow Light Snow
5:37 PM 5.0 °F - -0.4 °F 78% 30.03 in 3.0 mi Calm Calm - N/A Snow Light Snow
5:55 PM 5.2 °F - -0.6 °F 77% 30.03 in 4.0 mi Calm Calm - 0.00 in Snow Light Snow
6:03 PM 5.0 °F -2.1 °F -0.4 °F 78% 30.04 in 5.0 mi SW 3.5 mph - N/A Snow Light Snow
6:09 PM 5.0 °F - -0.4 °F 78% 30.04 in 6.0 mi Calm Calm - N/A Snow Light Snow
6:55 PM 6.3 °F - 0.9 °F 78% 30.04 in 6.0 mi Calm Calm - 0.00 in Snow Light Snow
6:57 PM 6.8 °F -0.1 °F 1.4 °F 79% 30.05 in 7.0 mi WSW 3.5 mph - N/A Snow Light Snow
7:00 PM 6.8 °F -0.1 °F 1.4 °F 79% 30.05 in 8.0 mi West 3.5 mph - N/A   Overcast
7:06 PM 6.8 °F - 1.4 °F 79% 30.05 in 10.0 mi Calm Calm - N/A   Overcast
7:11 PM 6.8 °F - 1.4 °F 79% 30.05 in 10.0 mi Calm Calm - N/A   Overcast
7:15 PM 6.8 °F - 1.4 °F 79% 30.05 in 10.0 mi Calm Calm - N/A   Overcast
7:23 PM 6.8 °F -3.5 °F 1.4 °F 79% 30.05 in 10.0 mi NNW 5.8 mph - N/A Snow Light Snow
7:41 PM 8.6 °F -6.3 °F 3.2 °F 79% 30.06 in 10.0 mi NNW 11.5 mph - N/A   Overcast
7:55 PM 8.8 °F -8.1 °F 2.3 °F 75% 30.07 in 10.0 mi North 15.0 mph 20.7 mph 0.00 in   Overcast
8:02 PM 8.6 °F -7.0 °F 1.4 °F 73% 30.07 in 10.0 mi NNW 12.7 mph - N/A   Overcast
8:07 PM 8.6 °F -10.5 °F 1.4 °F 73% 30.08 in 10.0 mi NNW 19.6 mph - N/A   Overcast
8:20 PM 6.8 °F -11.8 °F -0.4 °F 72% 30.08 in 10.0 mi NNW 17.3 mph - N/A   Overcast
8:25 PM 6.8 °F -10.7 °F -0.4 °F 72% 30.08 in 10.0 mi NNW 15.0 mph 23.0 mph N/A   Overcast
8:28 PM 6.8 °F -11.8 °F -0.4 °F 72% 30.08 in 10.0 mi NNW 17.3 mph 23.0 mph N/A   Overcast
8:36 PM 6.8 °F -9.3 °F -2.2 °F 67% 30.08 in 10.0 mi NNW 12.7 mph - N/A   Overcast
8:55 PM 5.7 °F -10.7 °F -2.0 °F 70% 30.08 in 10.0 mi NNW 12.7 mph - N/A   Overcast
9:55 PM 6.8 °F -6.9 °F -0.8 °F 71% 30.08 in 10.0 mi NW 9.2 mph - N/A   Overcast
10:55 PM 7.0 °F -9.1 °F -0.6 °F 71% 30.08 in 10.0 mi NNW 12.7 mph 20.7 mph N/A   Overcast
11:55 PM 4.8 °F -5.8 °F -1.8 °F 74% 30.09 in 10.0 mi NNW 5.8 mph - N/A   Mostly Cloudy